Flag for Germany Weather past 2 weeks in Wismar, Mecklenburg-Western Pomerania, Germany

Now
65 °F

Light rain. Overcast.


Feels Like: 65 °F
Forecast: 60 / 73 °F
Wind: 2 mph from East

Location: Schwerin

Current Time: Aug 5, 2015 at 12:27:41 AM

Latest Report: Aug 4, 2015 at 10:00 PM


Visibility: 4 mi

Pressure: 29.94 "Hg

Humidity: 97%

Dew point: 64 °F

Location of WismarLocation

Historic Weather in Wismar — Graph

°F

Wismar temperature yesterday

Maximum temperature yesterday: 90 °F (at 3:00 PM)
Minimum temperature yesterday: 65 °F (at 10:00 PM)
Average temperature yesterday: 77 °F

Past Weeks' High & Low Weather Summary

 TemperatureHumidityPressure
High90 °F (Aug 4, 3:00 PM)99% (Jul 24, 5:00 AM)30.16 "Hg (Jul 24, 5:00 AM)
Low45 °F (Aug 1, 4:00 AM)30% (Aug 3, 5:00 PM)29.44 "Hg (Jul 25, 2:00 PM)
Average64 °F71%29.84 "Hg
* Reported Jul 20 10:00 PM — Aug 4 10:00 PM, Wismar, Weather by CustomWeather, © 2015

Note: Actual official high and low records may vary slightly from our data, if they occured in-between our weather recording intervals... More about our weather records

Advertising

Wismar weather history for previous 24 hours

 ConditionsComfort  
Time TempWeatherWind HumidityBarometerVisibility
10:00 PM
Tue, Aug 4
65 °FLight rain. Overcast.2 mph97%29.94 "Hg4 mi
9:00 PM65 °FDrizzle. Overcast.7 mph92%29.90 "Hg10 mi
8:00 PM69 °FDrizzle. Overcast.6 mph94%29.93 "Hg3 mi
7:00 PM73 °FOvercast.5 mph67%29.85 "Hg15 mi
6:00 PM87 °FScattered clouds.3 mph35%29.80 "Hg18 mi
5:00 PM89 °FSunny.2 mph35%29.80 "Hg15 mi
4:00 PM89 °FScattered clouds.3 mph32%29.82 "Hg15 mi
3:00 PM90 °FScattered clouds.3 mph33%29.83 "Hg15 mi
2:00 PM89 °FPassing clouds.5 mph36%29.84 "Hg10 mi
1:00 PM88 °FPassing clouds.3 mph38%29.85 "Hg15 mi
12:00 PM85 °FScattered clouds.3 mph42%29.88 "Hg9 mi
10:00 AM79 °FPartly sunny.3 mph50%29.90 "Hg13 mi
9:00 AM75 °FOvercast.3 mph55%29.91 "Hg12 mi
8:00 AM72 °FOvercast.2 mph60%29.93 "Hg8 mi
7:00 AM68 °FScattered clouds.2 mph66%29.94 "Hg9 mi
4:00 AM68 °FPassing clouds.3 mph67%29.97 "Hg11 mi
3:00 AM69 °FPassing clouds.3 mph67%29.98 "Hg11 mi
2:00 AM67 °FOvercast.3 mph71%29.99 "Hg14 mi
1:00 AM69 °FOvercast.3 mph64%30.01 "Hg13 mi
Weather by CustomWeather, © 2015

See weather overviewHow to use our weather pages